Main page
METAR-TAF:

METAR-TAF

Airports :

J6-a, Netherlands

Oil platform

latitude: 53-49-27N, longitude: 2-56-43E, elevation: 34 m

Current weather observation

The report was made 22 minutes ago, at 06:55 UTC
Wind 17 kt from the East/Southeast
Temperature 13°C
Humidity 94%
Pressure 1023 hPa
Visibility 10 km or more

METAR: EHJA 260655Z AUTO 12017KT 9999 NCD 13/12 Q1023

Time: 09:17 (07:17 UTC)


TAF: missing

Weather observations and forecasts of more than 4000 airports (METAR and TAF reports).

The available stations are represented by yellow and red dots on the map.

Hover mouse over dot to see the name of the station.

Then click to see weather observations and forecasts.

To change the map : click on the green buttons with a black cross to zoom in, on the green button with a dash to zoom out, or on the green arrows for adjacent maps.


METAR-TAF: